Skip Page Navigation
NASA JPL Caltech
NASA Logo - Jet Propulsion Laboratory + View the NASA Portal
+ Near-Earth Object (NEO) Program
Search JPL
JPL Home Earth Solar System Stars & Galaxies Technology
JPL Solar System Dynamics
BODIES ORBITS EPHEMERIDES TOOLS PHYSICAL DATA DISCOVERY FAQ SITE MAP
JPL Small-Body Database Browser
Search: [ help ]  
12764 (1993 VA2)
Classification: Main-belt Asteroid          SPK-ID: 2012764
Ephemeris | Orbit Diagram | Orbital Elements | Physical Parameters | Discovery Circumstances | Close-Approach Data ]

[ show orbit diagram ]
Orbital Elements at Epoch 2457000.5 (2014-Dec-09.0) TDB
Reference: JPL 9 (heliocentric ecliptic J2000)
 Element Value Uncertainty (1-sigma)   Units 
e .08961968485170481 7.1994e-08  
a 3.054644404059376 3.4256e-08 AU
q 2.780888135233551 2.1655e-07 AU
i 11.0769575363211 9.9655e-06 deg
node 41.18881734940875 3.2009e-05 deg
peri 287.3143477556774 6.2495e-05 deg
M 54.03045185449634 5.3519e-05 deg
tp 2456707.831813446263
(2014-Feb-19.33181345)
0.00028998 JED
period 1950.021581220171
5.34
3.2803e-05
8.981e-08
d
yr
n .1846133414455547 3.1055e-09 deg/d
Q 3.328400672885201 3.7326e-08 AU
  Orbit Determination Parameters
   # obs. used (total)      1058  
   data-arc span      7777 days (21.29 yr)  
   first obs. used      1993-11-11  
   last obs. used      2015-02-26  
   planetary ephem.      DE431  
   SB-pert. ephem.      SB431-BIG16  
   condition code      0  
   fit RMS      .48622  
   data source      ORB  
   producer      Otto Matic  
   solution date      2015-Mar-09 14:32:20  

Additional Information
 Earth MOID = 1.79718 AU 
 T_jup = 3.201 
[ show covariance matrix ]

Ephemeris | Orbit Diagram | Orbital Elements | Physical Parameters | Discovery Circumstances | Close-Approach Data ]

Physical Parameter Table
Parameter Symbol Value Units Sigma Reference Notes
absolute magnitude H 12.8 mag n/a MPO309251  

12764 (1993 VA2)          Discovered 1993-Nov-11 by Ueda, S., Kaneda, H. at Kushiro
Reference: 19991222/Numbers.arcLast Updated: 2004-04-19

[ show close-approach data ]
Alternate Designations
 1993 VA2 = 1996 GT3 = 1998 VB7 
Ephemeris | Orbit Diagram | Orbital Elements | Physical Parameters | Discovery Circumstances | Close-Approach Data ]
ABOUT SSD CREDITS/AWARDS PRIVACY/COPYRIGHT GLOSSARY LINKS
FirstGov 2015-Mar-27 13:13 UT
(server date/time)  
NASA Home Page
Site Manager:   Ryan S. Park
Webmaster  Alan B. Chamberlin